Portsmouth, NH

12:29 PM EST on February 25, 2017 (GMT -0500)
Pease International Tradeport

Weather History for KPSM - November, 2012

Change the Weather History Date:

Wednesday, November 7, 2012

  Actual Average Record
Temperature  
Mean Temperature 34 °F -  
Max Temperature 37 °F 49 °F 74 °F (1975)
Min Temperature 30 °F 33 °F 12 °F (1987)
Degree Days  
Heating Degree Days 32    
Moisture  
Dew Point 18 °F    
Average Humidity 53    
Maximum Humidity 89    
Minimum Humidity 35    
Precipitation  
Precipitation 0.02 in - - ()
Sea Level Pressure  
Sea Level Pressure 30.02 in    
Wind  
Wind Speed 13 mph (NNE)    
Max Wind Speed 22 mph    
Max Gust Speed 30 mph    
Visibility 8 miles    
Events Rain , Snow    
Averages and records for this station are not official NWS values.
T = Trace of Precipitation, MM = Missing Value Source: NWS Daily Summary

Daily Weather History Graph

Daily Weather History Graph

Search for Another Location

Airport or City:

Trip Planner

Search our weather history database for the weather conditions in past years. The results will help you decide how hot, cold, wet, or windy it might be!

Date:

Astronomy

Nov. 07, 2012 Rise Set
Actual Time 6:26 AM EST 4:27 PM EST
Civil Twilight 5:56 AM EST 4:57 PM EST
Nautical Twilight 5:22 AM EST 5:31 PM EST
Astronomical Twilight 4:48 AM EST 6:04 PM EST
Moon No Moon Rise 12:44 PM EST (11/7)
Length of Visible Light 11h 01m
Length of Day
10h 01m
Last Quarter, 43% of the Moon is Illuminated
Nov 7
Last Quarter
Nov 13
New
Nov 20
First Quarter
Nov 28
Full
Dec 6
Last Quarter

Hourly Weather History & Observations

Time (EST) Temp. Windchill Dew Point Humidity Pressure Visibility Wind Dir Wind Speed Gust Speed Precip Events Conditions
12:55 AM 30.0 °F 23.2 °F 18.0 °F 61% 30.20 in 10.0 mi North 6.9 mph - N/A   Scattered Clouds
1:55 AM 30.6 °F 21.2 °F 18.5 °F 61% 30.19 in 10.0 mi North 11.5 mph - N/A   Mostly Cloudy
2:55 AM 31.6 °F 23.1 °F 19.0 °F 60% 30.18 in 10.0 mi North 10.4 mph - N/A   Mostly Cloudy
3:55 AM 32.0 °F 22.5 °F 18.5 °F 58% 30.18 in 10.0 mi North 12.7 mph - N/A   Mostly Cloudy
4:55 AM 32.0 °F 22.1 °F 16.9 °F 54% 30.16 in 10.0 mi NNE 13.8 mph - N/A   Mostly Cloudy
5:55 AM 32.4 °F 22.5 °F 18.3 °F 56% 30.14 in 10.0 mi North 13.8 mph 19.6 mph N/A   Mostly Cloudy
6:55 AM 32.7 °F 22.5 °F 16.5 °F 51% 30.14 in 10.0 mi North 15.0 mph - N/A   Overcast
7:55 AM 32.7 °F 21.8 °F 17.1 °F 53% 30.13 in 10.0 mi NNE 17.3 mph 24.2 mph N/A   Overcast
8:55 AM 34.0 °F 23.8 °F 17.6 °F 51% 30.11 in 10.0 mi NNE 16.1 mph 23.0 mph N/A   Overcast
9:55 AM 36.0 °F 26.3 °F 18.1 °F 48% 30.11 in 10.0 mi North 16.1 mph - N/A   Overcast
10:55 AM 36.1 °F 26.5 °F 18.0 °F 48% 30.08 in 10.0 mi NNE 16.1 mph 26.5 mph N/A   Overcast
11:55 AM 35.1 °F 24.5 °F 16.2 °F 46% 30.04 in 10.0 mi North 18.4 mph 26.5 mph N/A   Overcast
12:55 PM 34.9 °F 25.3 °F 12.6 °F 40% 30.02 in 10.0 mi North 15.0 mph - N/A   Overcast
1:55 PM 35.1 °F 26.4 °F 13.1 °F 40% 29.99 in 10.0 mi NNE 12.7 mph 19.6 mph N/A   Overcast
2:55 PM 35.2 °F 26.6 °F 12.4 °F 39% 29.98 in 10.0 mi NNE 12.7 mph - N/A   Overcast
3:55 PM 35.2 °F 26.2 °F 12.2 °F 39% 29.95 in 10.0 mi NNE 13.8 mph 24.2 mph N/A   Overcast
4:55 PM 35.6 °F 26.2 °F 12.9 °F 39% 29.95 in 10.0 mi NNE 15.0 mph 24.2 mph N/A   Overcast
5:55 PM 36.3 °F 27.1 °F 11.8 °F 36% 29.95 in 10.0 mi NNE 15.0 mph 23.0 mph N/A   Overcast
6:55 PM 36.7 °F 27.2 °F 11.8 °F 36% 29.93 in 10.0 mi NNE 16.1 mph 27.6 mph N/A   Overcast
7:55 PM 37.0 °F 27.4 °F 11.5 °F 35% 29.92 in 10.0 mi North 17.3 mph 25.3 mph N/A   Overcast
8:37 PM 35.6 °F 26.2 °F 17.6 °F 48% 29.92 in 3.0 mi NNE 15.0 mph 29.9 mph N/A Rain , Snow Light Rain
8:55 PM 34.7 °F 23.1 °F 22.3 °F 61% 29.92 in 3.0 mi NNE 21.9 mph 28.8 mph 0.00 in Rain , Snow Light Rain
9:55 PM 34.0 °F 22.7 °F 23.5 °F 66% 29.88 in 2.5 mi NNE 19.6 mph 27.6 mph 0.00 in Rain , Snow Light Rain
10:11 PM 32.0 °F 20.5 °F 24.8 °F 75% 29.88 in 0.8 mi NNE 18.4 mph 29.9 mph N/A Snow Light Snow
10:55 PM 31.1 °F 20.5 °F 27.5 °F 87% 29.86 in 1.5 mi North 15.0 mph 23.0 mph 0.00 in Snow Light Snow
11:55 PM 31.5 °F 19.8 °F 28.6 °F 89% 29.83 in 1.0 mi North 18.4 mph 28.8 mph 0.02 in Snow Light Snow